Regional Weather Roundup
Issued by NWS

Home | Current Version | Previous Version | Graphics & Text | Print | Product List | Glossary On
Versions: 1 2 3 4 5 6 7 8 9 10 11 12 13 14 15 16 17 18 19 20 21 22 23 24 25 26 27 28 29 30 31 32 33 34 35 36 37 38 39 40 41 42 43 44 45 46 47 48 49 50
000
ASUS44 KMEG 311500
RWRTN
TENNESSEE HOURLY STATE WEATHER ROUNDUP
NATIONAL WEATHER SERVICE MEMPHIS TN
1000 AM CDT TUE MAY 31 2016

TNZ002-004-019-021-049-052-054-088>092-311600-
WEST TENNESSEE

CITY           SKY/WX    TMP DP  RH WIND       PRES   REMARKS
MEMPHIS INTL   CLOUDY    74  68  81 S7        29.98F
NWS MEMPHIS      N/A     72 N/A N/A MISG        N/A
JACKSON        CLOUDY    74  67  78 NW6       29.99F
DYERSBURG      CLOUDY    72  66  83 NW3       29.99S
UNION CITY     CLOUDY    70  66  88 CALM      29.98S
PARIS          MOSUNNY   75  64  69 SE3       29.99S
LEXINGTON      SUNNY     79  66  65 CALM      29.98S
$$

TNZ008-025-027-028-033-062-065-066-311600-
NORTH MIDDLE TENNESSEE

CITY           SKY/WX    TMP DP  RH WIND       PRES   REMARKS
NASHVILLE      CLOUDY    81  64  56 CALM      30.00S
CLARKSVILLE    PTSUNNY   80  65  59 SE5       29.98F
COOKEVILLE     SUNNY     82  66  57 SE3       30.00S
CROSSVILLE     SUNNY     77  62  59 SE7       30.05F
$$

TNZ061-075-076-078-094-096-097-311600-
SOUTH MIDDLE TENNESSEE

CITY           SKY/WX    TMP DP  RH WIND       PRES   REMARKS
TULLAHOMA      SUNNY     81  63  54 E5        30.01S
WINCHESTER     SUNNY     82  64  54 CALM      29.99F
MCMINNVILLE    SUNNY     81  66  61 VRB3      30.01S
COLUMBIA       SUNNY     81  75  83 E5        29.97F
SHELBYVILLE    SUNNY     81  66  61 CALM      30.00F
$$

TNZ017-018-042-046-047-311600-
NORTHEAST TENNESSEE

CITY           SKY/WX    TMP DP  RH WIND       PRES   REMARKS
TRI CITIES     MOSUNNY   76  65  68 CALM      30.04S
$$

TNZ012-013-036-069-073-074-311600-
CENTRAL EAST TENNESSEE

CITY           SKY/WX    TMP DP  RH WIND       PRES   REMARKS
KNOXVILLE      CLOUDY    77  66  68 N5        30.01S
OAK RIDGE      SUNNY     80  64  58 VRB3      30.02F
GATLINBURG     SUNNY     77  63  61 NE5       30.00F
$$

TNZ083-085-099-311600-
SOUTHEAST TENNESSEE

CITY           SKY/WX    TMP DP  RH WIND       PRES   REMARKS
CHATTANOOGA    PTSUNNY   83  63  50 N6        29.99F
$$

SKY/WX REPORTED AS FAIR MEANS FEW OR NO CLOUDS BELOW
12 THOUSAND FEET.





USA.gov is the U.S. government's official web portal to all federal, state and local government web resources and services.